ROMMA est une association bénévole à but non lucratif. Votre soutien est indispensable : ADHERER à ROMMA ou FAIRE un DON

Crest - (26, Drôme)

Vallée de la Drôme (315 m)   Longitude: 5°2' E   Latitude: 44°44' N Station partenaire n°62
 

Détail journalier du     <<     >>

Température Precipitation Humidité Pression Vent Dir Rafale Dir. rafale Ensol.
Heure (°C) (mm) (%) (hPa) (km/h) (km/h) (min)
01:00 7.10.3909965SSO15SE0
02:00 8.70.5869959S31E0
03:00 8.20889955S18S0
04:00 8.20899952SE11SSE0
05:00 8.30909953SE11SE0
06:00 8.10.3919963S13ENE0
07:00 7.20919972ENE8S0
08:00 7.50939972S6SSE0
09:00 7.10929983S8SSE0
10:00 7.80939992SE8SE28
11:00 10.607910002SE6E42
12:00 11.40699995SE11SE60
13:00 12.10619985SE15SE60
14:00 12.10639977ESE18SE55
15:00 11.607399712SE23SE41
16:00 10.706999715SE31SE19
17:00 10.306499719SE39SE29
18:00 10.405999521SE42SE0
19:00 11.105599310ESE26SE0
20:00 10.60599929ESE24ESE0
21:00 10.80569915ESE15S0
22:00 7.85889959E24ENE0
23:00 7.64.3929938E23E0
minuit 8.308099114ENE29E0

Graphique du 21-12-2019

 

Serveur OMMA